sat.trackr.live / text

‹ back to catalog

NASBSAT-1

NORAD 67289 · 2025-313AT

PAYLOAD ACTIVE UNKNOWN

§ Identity

Operator
Country
BELA
Launch date
2025-12-28
Launch site
VOSTO
Launch vehicle
Mass (kg)
RCS (m²)

External: N2YO · Heavens-Above · Gunter

§ Orbital elements

Epoch: 2026-09-20T04:16:37.704288Z

Period
94.24 min
Inclination
97.3854°
Eccentricity
0.0009076
Mean motion
15.28057104 rev/d
Perigee alt
475.4 km
Apogee alt
487.8 km
Semi-major
6,859.8 km
B*
3.1556e-4
RAAN
337.4313°
Arg perigee
28.7109°
Mean anomaly
331.4628°
Rev number
4,048

§ Raw data

NASBSAT-11 67289U 25313AT  26263.17821417  .00008572  00000+0  31556-3 0  99902 67289  97.3854 337.4313 0009076  28.7109 331.4628 15.28057104 40489

JSON: /api/v1/satellites/67289 · /tle

For live sub-satellite position, see the globe view (requires WebGL).

§ Visibility from observer

Set your observer location to see the next 7 days of passes ≥ 10°. The values pass through the URL so the page stays shareable.

No JS? Fill the form by hand. The geolocation button needs JavaScript.